Location: Celina Division
(33.3022°N, 96.7580°W)
Time: 11:23:32
(UTC+00:00)

NOAA 18 - Pass Details

Date: 06 April 2023
Orbit: 838 x 860 km, 98.9° (Epoch: 08 June)

Event Time Altitude Azimuth Distance (km) Brightness Sun altitude
Exits shadow 04:47:06 17° 339° (NNW) 2,074 7.7 -43.5°
Drops below altitude 10° 04:48:14 10° 342° (NNW) 2,501 8.2 -43.6°
Sets 04:50:38 0° 344° (NNW) 3,441 9.1 -43.9°
